Location: Dampvalley
(47.9094°N, 6.1967°E)
Time: 06:41:45
(UTC+00:00)

Cosmos 2360 Rocket - Pass Details

Date: 05 March 2021
Orbit: 833 x 846 km, 71.0° (Epoch: 18 April)

Event Time Altitude Azimuth Distance (km) Brightness Sun altitude
Rises 04:55:38 0° 324° (NW) 3,416 5.1 -13.0°
Reaches altitude 10° 04:58:24 10° 313° (NW) 2,477 4.2 -12.5°
Maximum altitude 05:03:06 27° 257° (WSW) 1,563 3.0 -11.7°
Drops below altitude 10° 05:07:46 10° 201° (SSW) 2,461 4.4 -10.9°
Sets 05:10:31 0° 189° (S) 3,390 5.2 -10.5°
